CDT,Max TemperatureF,Mean TemperatureF,Min TemperatureF,Max Dew PointF,MeanDew PointF,Min DewpointF,Max Humidity, Mean Humidity, Min Humidity, Max Sea Level PressureIn, Mean Sea Level PressureIn, Min Sea Level PressureIn, Max VisibilityMiles, Mean VisibilityMiles, Min VisibilityMiles, Max Wind SpeedMPH, Mean Wind SpeedMPH, Max Gust SpeedMPH,PrecipitationIn, CloudCover, Events, WindDirDegrees
2014-3-1,1,-5,-13,-8,-19,-27,71,52,35,30.51,30.39,30.18,10,10,10,15,4,21,0.00,0,,327
2014-3-2,6,-6,-18,-13,-20,-27,65,48,33,30.52,30.49,30.44,10,10,10,12,6,,0.00,0,,290
2014-3-3,6,-8,-23,3,-14,-31,85,64,43,30.51,30.39,30.24,10,9,2,7,1,,0.00,5,Snow,153
2014-3-4,19,12,6,3,2,0,85,70,49,30.31,30.22,30.17,10,9,2,6,1,,0.00,5,Snow,69
2014-3-5,26,14,3,9,2,-4,73,58,46,30.48,30.39,30.31,10,10,10,9,3,,0.00,0,,113
2014-3-6,32,21,10,23,14,1,86,73,62,30.31,30.04,29.75,10,9,5,20,9,28,0.00,5,,173
2014-3-7,32,26,19,28,21,14,93,80,69,30.22,29.94,29.77,10,7,1,18,6,24,0.04,7,Snow,324
2014-3-8,30,16,1,12,8,-4,85,64,37,30.33,30.25,30.13,10,10,10,8,3,,0.00,1,,280
2014-3-9,42,28,14,30,22,10,93,74,57,30.11,29.77,29.63,10,10,10,13,6,20,0.00,0,,215
2014-3-10,53,40,26,34,29,25,100,68,38,29.69,29.63,29.56,10,10,3,10,3,,0.00,1,,273
2014-3-11,41,34,28,30,22,14,81,60,38,30.05,29.87,29.70,10,10,10,20,7,26,0.00,3,,335
2014-3-12,26,20,14,16,6,-4,68,55,26,30.15,30.09,29.99,10,10,10,15,8,22,0.00,1,,348
2014-3-13,44,30,17,34,23,5,87,71,57,29.99,29.73,29.49,10,10,10,12,5,16,0.00,3,,194
2014-3-14,41,32,23,34,25,12,87,70,52,29.97,29.65,29.48,10,10,10,23,9,32,0.00,2,,304
2014-3-15,32,24,14,12,8,-2,79,55,34,30.45,30.20,29.97,10,10,10,12,5,17,0.00,0,,14
2014-3-16,23,12,1,10,1,-6,72,53,39,30.50,30.35,29.98,10,10,10,10,3,,0.00,1,,157
2014-3-17,28,24,21,21,18,10,80,75,63,29.97,29.70,29.60,10,10,4,12,8,18,0.00,7,Snow,139
2014-3-18,32,29,26,27,24,21,93,85,80,29.87,29.78,29.69,10,3,0,8,5,18,0.30,8,Snow,53
2014-3-19,33,27,17,23,22,12,86,73,56,29.97,29.89,29.83,10,10,3,15,6,21,0.00,7,Snow,330
2014-3-20,39,26,12,28,21,10,93,78,56,30.01,29.96,29.90,10,9,0,7,1,,0.00,3,Fog,212
2014-3-21,35,25,14,32,25,7,93,80,73,30.17,29.86,29.71,10,8,0,29,6,36,0.09,7,Rain-Snow,277
2014-3-22,17,11,5,7,0,-6,73,60,49,30.49,30.38,30.18,10,10,10,21,14,30,0.00,0,,325
2014-3-23,23,8,-7,5,0,-13,85,65,46,30.50,30.43,30.34,10,10,7,12,3,,0.00,2,,284
2014-3-24,32,14,-4,19,5,-8,85,65,34,30.34,30.19,30.08,10,9,1,16,4,28,0.00,5,Snow,299
2014-3-25,21,12,1,3,-1,-6,85,55,39,30.26,30.19,30.14,10,10,10,15,9,22,0.00,2,,306
2014-3-26,35,15,-5,23,8,-9,85,66,44,30.14,29.91,29.59,10,10,7,16,4,22,0.00,2,,125
2014-3-27,35,32,30,34,30,23,100,88,65,29.78,29.57,29.51,10,5,0,12,5,16,0.25,8,Rain-Snow,64
2014-3-28,33,25,17,25,14,5,86,56,32,30.26,30.07,29.79,10,10,10,12,6,16,0.00,3,,333
2014-3-29,39,26,12,23,12,7,85,54,32,30.28,30.21,30.05,10,10,10,9,2,,0.00,2,,160
2014-3-30,50,41,32,32,30,23,81,66,50,30.04,29.88,29.82,10,10,10,10,6,17,0.00,0,Thunderstorm,157
2014-3-31,41,37,33,34,32,30,93,82,70,29.82,29.61,29.36,10,9,5,9,5,18,0.02,5,Rain-Thunderstorm,77